| time (UTC) | temp F | wind direction | speed MPH | gust MPH | rain 1hr in | rain 24hr in | rain mn in | humidity % | barometer mb |
| 20260510010047 | 66 | 265 | 4.0 | 7.0 | 0.00 | 0.01 | 0.01 | 59 | 978.9 |
| 20260510004539 | 68 | 262 | 4.0 | 9.0 | 0.00 | 0.01 | 0.01 | 52 | 978.7 |
| 20260510003052 | 69 | 311 | 5.0 | 15.0 | 0.00 | 0.01 | 0.01 | 51 | 978.6 |
| 20260510001542 | 69 | 266 | 9.0 | 12.0 | 0.00 | 0.01 | 0.01 | 58 | 978.2 |
| 20260510000043 | 69 | 259 | 5.0 | 12.0 | 0.00 | 0.01 | 0.01 | 59 | 978.0 |
| 20260509234541 | 70 | 245 | 7.0 | 14.0 | 0.00 | 0.01 | 0.01 | 57 | 977.7 |
| 20260509233033 | 71 | 238 | 7.0 | 12.0 | 0.00 | 0.01 | 0.01 | 67 | 977.6 |
| 20260509231534 | 71 | 253 | 7.0 | 11.0 | 0.00 | 0.01 | 0.01 | 70 | 977.5 |
| 20260509230032 | 72 | 223 | 8.0 | 14.0 | 0.00 | 0.01 | 0.01 | 66 | 977.6 |
| 20260509224531 | 70 | 206 | 7.0 | 15.0 | 0.00 | 0.01 | 0.01 | 68 | 977.7 |
| 20260509223031 | 72 | 235 | 9.0 | 16.0 | 0.00 | 0.01 | 0.01 | 65 | 977.5 |
| 20260509221533 | 71 | 233 | 10.0 | 18.0 | 0.00 | 0.01 | 0.01 | 65 | 977.4 |
| 20260509220029 | 71 | 229 | 11.0 | 18.0 | 0.00 | 0.01 | 0.01 | 65 | 977.3 |
| 20260509214536 | 71 | 233 | 12.0 | 18.0 | 0.00 | 0.01 | 0.01 | 65 | 977.4 |
| 20260509213034 | 73 | 233 | 11.0 | 20.0 | 0.00 | 0.01 | 0.01 | 64 | 977.3 |
| 20260509211527 | 73 | 272 | 11.0 | 20.0 | 0.00 | 0.01 | 0.01 | 63 | 977.1 |
| 20260509210023 | 72 | 231 | 12.0 | 16.0 | 0.00 | 0.01 | 0.01 | 60 | 977.2 |
| 20260509204528 | 72 | 231 | 15.0 | 23.0 | 0.00 | 0.04 | 0.01 | 61 | 977.4 |
| 20260509203020 | 72 | 238 | 13.0 | 19.0 | 0.00 | 0.04 | 0.01 | 61 | 977.4 |
| 20260509201519 | 72 | 278 | 13.0 | 24.0 | 0.00 | 0.04 | 0.01 | 64 | 977.4 |
| 20260509200017 | 72 | 228 | 11.0 | 25.0 | 0.00 | 0.04 | 0.01 | 64 | 977.6 |
| 20260509194515 | 72 | 245 | 14.0 | 23.0 | 0.00 | 0.12 | 0.01 | 64 | 977.6 |
| 20260509193018 | 71 | 255 | 15.0 | 24.0 | 0.00 | 0.12 | 0.01 | 62 | 977.6 |
| 20260509191513 | 71 | 232 | 12.0 | 23.0 | 0.00 | 0.12 | 0.01 | 67 | 977.7 |
| 20260509190010 | 70 | 236 | 10.0 | 18.0 | 0.00 | 0.12 | 0.01 | 68 | 977.7 |
| 20260509184506 | 70 | 255 | 12.0 | 20.0 | 0.00 | 0.20 | 0.01 | 70 | 977.7 |
| 20260509183005 | 70 | 236 | 10.0 | 17.0 | 0.00 | 0.20 | 0.01 | 70 | 977.8 |
| 20260509181503 | 69 | 225 | 9.0 | 19.0 | 0.00 | 0.20 | 0.01 | 72 | 977.8 |
| 20260509180100 | 69 | 209 | 7.0 | 16.0 | 0.00 | 0.20 | 0.01 | 73 | 977.9 |
| 20260509174605 | 68 | 233 | 8.0 | 18.0 | 0.00 | 0.20 | 0.01 | 76 | 977.9 |
| 20260509173109 | 67 | 225 | 10.0 | 18.0 | 0.00 | 0.20 | 0.01 | 75 | 978.1 |
| 20260509171555 | 66 | 218 | 7.0 | 16.0 | 0.00 | 0.20 | 0.01 | 77 | 978.3 |
| 20260509170051 | 67 | 240 | 8.0 | 14.0 | 0.00 | 0.20 | 0.01 | 77 | 978.4 |
| 20260509164548 | 66 | 241 | 10.0 | 16.0 | 0.00 | 0.20 | 0.01 | 77 | 978.4 |
| 20260509163047 | 65 | 240 | 12.0 | 18.0 | 0.00 | 0.20 | 0.01 | 79 | 978.5 |
| 20260509161544 | 65 | 200 | 4.0 | 14.0 | 0.00 | 0.20 | 0.01 | 83 | 978.5 |
| 20260509160041 | 64 | 252 | 6.0 | 15.0 | 0.00 | 0.20 | 0.01 | 82 | 978.4 |
| 20260509154537 | 63 | 211 | 5.0 | 16.0 | 0.00 | 0.20 | 0.01 | 82 | 978.4 |
| 20260509153036 | 63 | 242 | 4.0 | 12.0 | 0.00 | 0.20 | 0.01 | 84 | 978.4 |
| 20260509151534 | 62 | 220 | 4.0 | 12.0 | 0.00 | 0.20 | 0.01 | 85 | 978.4 |
| 20260509150031 | 61 | 246 | 6.0 | 15.0 | 0.00 | 0.20 | 0.01 | 87 | 978.3 |
| 20260509144528 | 60 | 231 | 7.0 | 13.0 | 0.00 | 0.20 | 0.01 | 85 | 978.4 |
| 20260509143026 | 60 | 232 | 7.0 | 14.0 | 0.00 | 0.20 | 0.01 | 86 | 978.4 |
| 20260509141523 | 60 | 253 | 7.0 | 15.0 | 0.00 | 0.20 | 0.01 | 87 | 978.5 |
| 20260509140027 | 59 | 235 | 9.0 | 14.0 | 0.00 | 0.20 | 0.01 | 87 | 978.5 |
| 20260509134518 | 58 | 226 | 7.0 | 14.0 | 0.00 | 0.20 | 0.01 | 88 | 978.5 |
| 20260509133014 | 58 | 263 | 8.0 | 14.0 | 0.00 | 0.20 | 0.01 | 90 | 978.6 |
| 20260509131527 | 57 | 252 | 7.0 | 12.0 | 0.00 | 0.20 | 0.01 | 91 | 978.7 |
| 20260509130021 | 57 | 248 | 7.0 | 12.0 | 0.00 | 0.20 | 0.01 | 92 | 978.6 |
| 20260509124507 | 56 | 221 | 4.0 | 9.0 | 0.00 | 0.20 | 0.01 | 93 | 978.5 |
| 20260509123006 | 56 | 239 | 3.0 | 7.0 | 0.00 | 0.20 | 0.01 | 94 | 978.7 |
| 20260509121506 | 56 | 238 | 2.0 | 4.0 | 0.00 | 0.20 | 0.01 | 95 | 978.8 |
| 20260509120059 | 55 | 233 | 2.0 | 6.0 | 0.00 | 0.20 | 0.01 | 97 | 978.8 |
| 20260509114556 | 53 | 238 | 1.0 | 4.0 | 0.00 | 0.21 | 0.01 | 98 | 978.7 |
| 20260509113058 | 53 | 238 | 0.0 | 3.0 | 0.00 | 0.21 | 0.01 | 97 | 978.5 |
| 20260509111603 | 53 | 243 | 1.0 | 3.0 | 0.00 | 0.21 | 0.01 | 98 | 978.2 |
| 20260509110055 | 52 | 233 | 0.0 | 2.0 | 0.00 | 0.21 | 0.01 | 98 | 978.1 |
| 20260509104554 | 53 | 233 | 0.0 | 3.0 | 0.00 | 0.23 | 0.01 | 98 | 977.9 |
| 20260509103154 | 53 | 229 | 1.0 | 5.0 | 0.00 | 0.23 | 0.01 | 98 | 977.9 |
| 20260509101553 | 53 | 224 | 2.0 | 6.0 | 0.00 | 0.23 | 0.01 | 98 | 978.0 |
| 20260509100052 | 53 | 248 | 4.0 | 7.0 | 0.00 | 0.23 | 0.01 | 99 | 978.3 |
| 20260509094552 | 53 | 231 | 4.0 | 9.0 | 0.00 | 0.24 | 0.01 | 99 | 978.2 |
| 20260509093050 | 53 | 229 | 3.0 | 9.0 | 0.00 | 0.24 | 0.01 | 99 | 978.1 |
| 20260509091549 | 53 | 243 | 1.0 | 5.0 | 0.00 | 0.24 | 0.01 | 99 | 978.3 |
| 20260509084546 | 51 | 226 | 0.0 | 2.0 | 0.01 | 0.24 | 0.01 | 99 | 978.2 |
| 20260509083051 | 52 | 233 | 0.0 | 3.0 | 0.01 | 0.24 | 0.01 | 99 | 978.1 |
| 20260509081544 | 52 | 232 | 0.0 | 7.0 | 0.01 | 0.24 | 0.01 | 99 | 978.3 |
| 20260509080047 | 52 | 216 | 0.0 | 3.0 | 0.01 | 0.24 | 0.01 | 99 | 978.3 |
| 20260509074543 | 52 | 219 | 0.0 | 3.0 | 0.00 | 0.23 | 0.00 | 99 | 978.2 |
| 20260509073045 | 52 | 224 | 0.0 | 2.0 | 0.00 | 0.23 | 0.00 | 99 | 978.5 |
| 20260509071540 | 52 | 224 | 0.0 | 2.0 | 0.00 | 0.23 | 0.00 | 99 | 978.7 |
| 20260509070038 | 52 | 214 | 0.0 | 3.0 | 0.00 | 0.23 | 0.00 | 99 | 978.9 |
| 20260509064539 | 52 | 239 | 0.0 | 4.0 | 0.00 | 0.23 | 0.00 | 99 | 979.2 |
| 20260509063035 | 52 | 241 | 0.0 | 5.0 | 0.00 | 0.23 | 0.00 | 99 | 979.3 |
| 20260509061540 | 52 | 238 | 0.0 | 3.0 | 0.00 | 0.23 | 0.00 | 98 | 979.2 |
| 20260509060037 | 51 | 243 | 0.0 | 2.0 | 0.00 | 0.23 | 0.00 | 98 | 979.6 |
| 20260509054530 | 51 | 184 | 0.0 | 1.0 | 0.00 | 0.23 | 0.00 | 98 | 979.6 |
| 20260509053042 | 51 | 229 | 0.0 | 2.0 | 0.00 | 0.23 | 0.00 | 98 | 979.6 |
| 20260509051528 | 52 | 244 | 0.0 | 1.0 | 0.00 | 0.23 | 0.00 | 98 | 979.5 |
| 20260509050029 | 52 | 228 | 0.0 | 2.0 | 0.00 | 0.23 | 0.00 | 98 | 979.5 |
| 20260509044525 | 52 | 223 | 0.0 | 1.0 | 0.00 | 0.23 | 0.00 | 97 | 979.5 |
| 20260509043023 | 52 | 222 | 0.0 | 1.0 | 0.00 | 0.23 | 0.00 | 97 | 979.6 |
| 20260509041534 | 53 | 222 | 0.0 | 3.0 | 0.00 | 0.23 | 0.00 | 97 | 979.6 |
| 20260509040020 | 53 | 225 | 0.0 | 1.0 | 0.00 | 0.23 | 0.00 | 97 | 979.8 |
| 20260509034520 | 53 | 225 | 0.0 | 1.0 | 0.00 | 0.23 | 0.23 | 97 | 979.8 |
| 20260509033019 | 53 | 225 | 0.0 | 0.0 | 0.00 | 0.23 | 0.23 | 97 | 979.9 |
| 20260509031518 | 53 | 225 | 0.0 | 1.0 | 0.00 | 0.23 | 0.23 | 96 | 979.9 |
| 20260509030018 | 54 | 225 | 0.0 | 4.0 | 0.00 | 0.23 | 0.23 | 96 | 979.9 |
| 20260509024517 | 54 | 252 | 0.0 | 2.0 | 0.00 | 0.23 | 0.23 | 96 | 980.0 |
| 20260509023018 | 54 | 240 | 0.0 | 3.0 | 0.00 | 0.23 | 0.23 | 96 | 980.0 |
| 20260509021517 | 54 | 242 | 1.0 | 4.0 | 0.00 | 0.23 | 0.23 | 96 | 980.0 |
| 20260509020015 | 54 | 232 | 0.0 | 5.0 | 0.00 | 0.23 | 0.23 | 95 | 979.9 |
| 20260509014514 | 55 | 217 | 2.0 | 6.0 | 0.00 | 0.23 | 0.23 | 95 | 979.8 |
| 20260509013014 | 54 | 238 | 2.0 | 5.0 | 0.00 | 0.23 | 0.23 | 95 | 980.0 |
| 20260509011516 | 54 | 224 | 0.0 | 5.0 | 0.00 | 0.23 | 0.23 | 95 | 980.0 |